Cut Bank, MT

4:33 PM MDT on October 22, 2019 (GMT -0600)
Cut Bank Municipal

Weather History for KCTB - August, 2019

Change the Weather History Date:

Wednesday, August 21, 2019

  Actual Average Record
Temperature  
Mean Temperature 69 °F 63 °F  
Max Temperature 90 °F 78 °F 95 °F (1969)
Min Temperature 48 °F 47 °F 33 °F (1992)
Degree Days  
Heating Degree Days 0 4  
Month to date heating degree days 45 57  
Since 1 June heating degree days 360 376  
Since 1 July heating degree days 138 143  
Cooling Degree Days 4 2  
Month to date cooling degree days 49 55  
Year to date cooling degree days 102 144  
Since 1 June cooling degree days 102 142  
Growing Degree Days 19 (Base 50)    
Moisture  
Dew Point 46 °F    
Average Humidity 48    
Maximum Humidity 80    
Minimum Humidity 20    
Precipitation  
Precipitation 0.00 in 0.04 in 1.69 in (1932)
Month to date precipitation 1.19 0.79  
Year to date precipitation 8.60 8.26  
Snow  
Snow - - - ()
Snow Depth 0.00 in    
Sea Level Pressure  
Sea Level Pressure 29.89 in    
Wind  
Wind Speed 6 mph ()    
Max Wind Speed 23 mph    
Max Gust Speed 32 mph    
Visibility 10.0 miles    
Events      
T = Trace of Precipitation, MM = Missing Value Source: Averaged Metar Reports

Daily Weather History Graph

Daily Weather History Graph

Search for Another Location

Airport or City:

Astronomy

Aug. 21, 2019 Rise Set
Actual Time 6:31 AM MDT 8:33 PM MDT
Civil Twilight 5:57 AM MDT 9:07 PM MDT
Nautical Twilight 5:15 AM MDT 9:48 PM MDT
Astronomical Twilight 4:27 AM MDT 10:35 PM MDT
Moon 11:23 PM MDT (8/21) 12:37 PM MDT (8/21)
Length of Visible Light 15h 09m
Length of Day
14h 02m
Waning Gibbous, 68% of the Moon is Illuminated
Aug 21
Waning Gibbous
Aug 23
Last Quarter
Aug 30
New
Sep 5
First Quarter
Sep 13
Full

Hourly Weather History & Observations

Time (MDT) Temp. Dew Point Humidity Pressure Visibility Wind Dir Wind Speed Gust Speed Precip Events Conditions
12:56 AM 57.9 °F 46.9 °F 67% 30.05 in 10.0 mi ESE 4.6 mph - N/A   Clear
1:56 AM 57.9 °F 46.0 °F 65% 30.04 in 10.0 mi East 3.5 mph - N/A   Clear
2:56 AM 55.9 °F 45.0 °F 67% 30.03 in 10.0 mi ESE 6.9 mph - N/A   Clear
3:56 AM 54.0 °F 44.1 °F 69% 30.03 in 10.0 mi Calm Calm - N/A   Clear
4:56 AM 53.1 °F 44.1 °F 71% 30.02 in 10.0 mi Calm Calm - N/A   Clear
5:56 AM 50.0 °F 44.1 °F 80% 30.02 in 10.0 mi Calm Calm - N/A   Clear
6:56 AM 48.9 °F 43.0 °F 80% 30.01 in 10.0 mi Calm Calm - N/A   Clear
7:56 AM 54.0 °F 46.9 °F 77% 30.01 in 10.0 mi Calm Calm - N/A   Clear
8:56 AM 59.0 °F 46.9 °F 64% 30.01 in 10.0 mi SSE 5.8 mph - N/A   Clear
9:56 AM 64.0 °F 46.9 °F 54% 29.99 in 10.0 mi SE 6.9 mph - N/A   Clear
10:56 AM 72.0 °F 48.0 °F 43% 29.96 in 10.0 mi SSE 10.4 mph - N/A   Clear
11:56 AM 75.9 °F 50.0 °F 40% 29.94 in 10.0 mi SE 11.5 mph - N/A   Clear
12:56 PM 80.1 °F 51.1 °F 36% 29.91 in 10.0 mi SE 12.7 mph - N/A   Clear
1:56 PM 84.9 °F 50.0 °F 30% 29.86 in 10.0 mi SE 17.3 mph 20.7 mph N/A   Clear
2:56 PM 87.1 °F 48.0 °F 26% 29.83 in 10.0 mi SSE 20.7 mph 26.5 mph N/A   Clear
3:56 PM 88.0 °F 46.9 °F 24% 29.80 in 10.0 mi SE 19.6 mph 27.6 mph N/A   Clear
4:56 PM 89.1 °F 43.0 °F 20% 29.77 in 10.0 mi SE 20.7 mph 29.9 mph N/A   Clear
5:56 PM 87.1 °F 42.1 °F 21% 29.75 in 10.0 mi SSE 11.5 mph - N/A   Clear
6:56 PM 87.1 °F 41.0 °F 20% 29.73 in 10.0 mi South 11.5 mph - N/A   Clear
7:56 PM 84.9 °F 39.0 °F 20% 29.71 in 10.0 mi SE 13.8 mph - N/A   Partly Cloudy
8:56 PM 78.1 °F 44.1 °F 30% 29.73 in 10.0 mi SSE 15.0 mph - N/A   Clear
9:56 PM 71.1 °F 46.9 °F 42% 29.74 in 10.0 mi South 9.2 mph - N/A   Clear
10:56 PM 69.1 °F 46.9 °F 45% 29.73 in 10.0 mi SE 4.6 mph - N/A   Clear
11:56 PM 64.9 °F 48.0 °F 54% 29.72 in 10.0 mi SSE 8.1 mph - N/A   Clear